Regional Weather Roundup
Issued by NWS Kansas City/Pleasant Hill, MO

Home | Current Version | Previous Version | Graphics & Text | Print | Product List | Glossary Off
Versions: 1 2 3 4 5 6 7 8 9 10 11 12 13 14 15 16 17 18 19 20 21 22 23 24 25 26 27 28 29 30 31 32 33 34 35 36 37 38 39 40 41 42 43 44 45 46 47 48 49 50

000
ASUS43 KEAX 210404
RWREAX

WEATHER ROUNDUP FOR EASTERN KANSAS AND NORTHWEST MISSOURI
NATIONAL WEATHER SERVICE KANSAS CITY/PLEASANT HILL MO
1100 PM CDT SAT SEP 20 2014

KSZ040-057-103>105-MOZ028-029-037-043-210500-
...KANSAS CITY METROPOLITAN AREA...

CITY           SKY/WX    TMP DP  RH WIND       PRES   REMARKS
K.C. INTL      CLEAR     70  68  93 W7        29.99R
K.C. DOWNTOWN  CLEAR     74  69  85 SW6       29.98R
LEES SUMMIT    PTCLDY    71  69  93 SW5       30.00R
OLATHE - IXD   PTCLDY    71  69  93 CALM      30.01R
OLATHE - OJC   PTCLDY    72  69  90 CALM      30.00R
LAWRENCE       CLEAR     66  64  93 CALM      30.00R FOG

$$

MOZ001>008-011>017-020>025-030>033-038>040-044>046-053-054-210500-
...NORTHERN AND CENTRAL MISSOURI...

CITY           SKY/WX    TMP DP  RH WIND       PRES   REMARKS
ST. JOSEPH     CLEAR     68  66  93 N5        29.98R
MOSBY          CLEAR     70  70 100 CALM      29.97S
WHITEMAN AFB   PTCLDY    73  70  91 NW8       29.98R
CLINTON        PTCLDY    73  72  94 SW3       29.98S
SEDALIA        MOCLDY    75  70  84 SW8       29.97R
WARSAW         NOT AVBL
MARSHALL       CLOUDY    77  73  88 W6        29.96R
CHILLICOTHE      N/A     74  69  85 CALM      29.95S
MOBERLY        CLEAR     75  68  78 W10       29.95R
KIRKSVILLE     CLEAR     72  70  93 SW5       29.93R FOG

$$

MOZ041-047>049-056>058-063>065-088>090-097-210500-
...EASTERN AND SOUTHERN MISSOURI...

CITY           SKY/WX    TMP DP  RH WIND       PRES   REMARKS
ST. LOUIS INTL PTCLDY    77  67  71 SW7       29.93S
SPIRIT OF STL  CLEAR     70  67  90 W7        29.92S
COLUMBIA       CLEAR     74  70  87 SW9       29.95S
JEFFERSON CITY CLOUDY    73  69  87 CALM      29.94S
MEXICO         CLEAR    N/A N/A N/A SW7       29.93R
ROLLA          CLEAR     71  67  87 SW8       29.97S
LEBANON        PTCLDY    72  66  83 SW3       30.02R
OSAGE BEACH    CLEAR     72  66  83 SW5       29.98S
SPRINGFIELD    MOCLDY    71  67  87 SW6       30.02R
BRANSON        PTCLDY    70  66  88 CALM      30.05S
NEVADA         MOCLDY    73  70  88 S6        30.00S
JOPLIN         CLOUDY    75  68  78 S7        30.01R
WEST PLAINS    CLEAR     73  66  78 SW5       30.04S

$$

IAZ060-094-KSZ022-034>040-054-083-096-NEZ052-066-093-210500-
...KANSAS...SOUTHEAST NEBRASKA AND IOWA...

CITY           SKY/WX    TMP DP  RH WIND       PRES   REMARKS
TOPEKA         CLEAR     68  67  96 W3        30.01R FOG
MANHATTAN      CLEAR     67  65  93 SW5       30.02R
EMPORIA        MOCLDY    70  67  90 SW5       30.01R
CHANUTE        CLOUDY    74  70  87 S5        30.00S
WICHITA        MOCLDY    73  68  84 CALM      29.99R
OMAHA          CLEAR     70  53  54 N12       30.04R
LINCOLN        CLEAR     70  54  56 N15G22    30.07R
FALLS CITY     CLEAR     70  67  90 W8        29.99R
LAMONI           N/A     67  59  75 W9        29.94S
DES MOINES     PTCLDY    69  52  54 N16G32    29.97R

$$




USA.gov is the U.S. government's official web portal to all federal, state and local government web resources and services.